Chamberlain, SD

3:10 AM CST on January 19, 2017 (GMT -0600)
Chamberlain

Weather History for K9V9 - January, 2013

Change the Weather History Date:

Wednesday, January 9, 2013

  Actual Average Record
Temperature  
Mean Temperature 31 °F -  
Max Temperature 43 °F 27 °F 57 °F (2012)
Min Temperature 19 °F 8 °F -11 °F (1997)
Degree Days  
Heating Degree Days 34    
Moisture  
Dew Point 24 °F    
Average Humidity 69    
Maximum Humidity 85    
Minimum Humidity 58    
Precipitation  
Precipitation 0.00 in - - ()
Sea Level Pressure  
Sea Level Pressure 30.19 in    
Wind  
Wind Speed 10 mph (SSW)    
Max Wind Speed 24 mph    
Max Gust Speed 32 mph    
Averages and records for this station are not official NWS values.
T = Trace of Precipitation, MM = Missing Value Source: NWS Daily Summary

Daily Weather History Graph

Daily Weather History Graph

Search for Another Location

Airport or City:

Trip Planner

Search our weather history database for the weather conditions in past years. The results will help you decide how hot, cold, wet, or windy it might be!

Date:

Astronomy

Jan. 09, 2013 Rise Set
Actual Time 8:10 AM CST 5:19 PM CST
Civil Twilight 7:38 AM CST 5:51 PM CST
Nautical Twilight 7:02 AM CST 6:27 PM CST
Astronomical Twilight 6:27 AM CST 7:01 PM CST
Moon 5:51 AM CST (1/9) 3:22 PM CST (1/9)
Length of Visible Light 10h 13m
Length of Day
9h 08m
Waning Crescent, 6% of the Moon is Illuminated
Jan 9
Waning Crescent
Jan 11
New
Jan 18
First Quarter
Jan 26
Full
Feb 3
Last Quarter

Hourly Weather History & Observations

Time (CST) Temp. Windchill Dew Point Humidity Pressure Visibility Wind Dir Wind Speed Gust Speed Precip Events Conditions
12:52 AM 32.0 °F 22.5 °F 26.1 °F 79% 30.16 in - West 12.7 mph - N/A   Unknown
1:52 AM 28.9 °F 18.6 °F 23.0 °F 78% 30.19 in - WSW 12.7 mph - N/A   Unknown
2:52 AM 30.0 °F 18.7 °F 23.0 °F 75% 30.22 in - West 16.1 mph - N/A   Unknown
3:52 AM 33.1 °F 24.4 °F 23.0 °F 66% 30.20 in - WNW 11.5 mph - N/A   Unknown
4:52 AM 27.0 °F 18.0 °F 19.9 °F 75% 30.22 in - West 9.2 mph - N/A   Unknown
5:52 AM 25.0 °F 19.3 °F 19.0 °F 78% 30.22 in - WSW 4.6 mph - N/A   Unknown
6:52 AM 23.0 °F - 19.0 °F 85% 30.24 in - Calm Calm - N/A   Unknown
7:52 AM 19.0 °F 11.1 °F 15.1 °F 85% 30.25 in - SW 5.8 mph - N/A   Unknown
8:52 AM 23.0 °F 18.4 °F 17.1 °F 78% 30.27 in - SSE 3.5 mph - N/A   Unknown
9:52 AM 21.9 °F 14.5 °F 17.1 °F 82% 30.30 in - South 5.8 mph - N/A   Unknown
10:52 AM 30.0 °F 24.1 °F 21.0 °F 69% 30.30 in - South 5.8 mph - N/A   Unknown
11:52 AM 34.0 °F 26.0 °F 23.0 °F 64% 30.25 in - SE 10.4 mph - N/A   Unknown
12:52 PM 37.0 °F 30.4 °F 27.0 °F 67% 30.23 in - South 9.2 mph - N/A   Unknown
1:52 PM 42.1 °F 40.2 °F 28.9 °F 60% 30.20 in - South 3.5 mph - N/A   Unknown
2:52 PM 42.1 °F 40.2 °F 28.9 °F 60% 30.20 in - South 3.5 mph - N/A   Unknown
3:52 PM 42.1 °F 37.7 °F 30.0 °F 62% 30.18 in - South 6.9 mph - N/A   Unknown
4:52 PM 43.0 °F 40.3 °F 28.9 °F 58% 30.17 in - SE 4.6 mph - N/A   Unknown
5:52 PM 39.0 °F 32.8 °F 28.9 °F 67% 30.16 in - ESE 9.2 mph - N/A   Unknown
6:52 PM 37.9 °F 30.0 °F 28.0 °F 68% 30.16 in - SSE 12.7 mph - N/A   Unknown
7:52 PM 41.0 °F 34.3 °F 28.0 °F 60% 30.14 in - South 11.5 mph - N/A   Unknown
8:52 PM 41.0 °F 33.1 °F 28.0 °F 60% 30.12 in - South 15.0 mph - N/A   Unknown
9:52 PM 42.1 °F 33.9 °F 28.0 °F 58% 30.12 in - South 17.3 mph 21.9 mph N/A   Unknown
10:52 PM 42.1 °F 33.9 °F 28.0 °F 58% 30.08 in - South 17.3 mph - N/A   Unknown
11:52 PM 42.1 °F 32.3 °F 28.0 °F 58% 30.06 in - SSW 24.2 mph 32.2 mph N/A   Unknown